{"data":{"norad_id":29709,"epoch":"2026-05-25T03:46:23.206656Z","epoch_age_seconds":61146,"freshness":"FRESH","line1":"1 29709U 07001A   26145.15721304  .00000804  00000+0  98682-4 0  9994","line2":"2 29709  98.1346 143.8637 0010714 260.6002  99.4001 14.85924164 47739","mean_motion":14.85924164,"eccentricity":0.0010714,"inclination_deg":98.1346,"raan_deg":143.8637,"arg_perigee_deg":260.6002,"mean_anomaly_deg":99.4001,"bstar":9.8682e-5,"rev_number":4773,"period_min":96.909387093055,"perigee_km":603.19875749166,"apogee_km":618.17440866548,"semimajor_km":6988.8235830786,"source":"CELESTRAK","updated_at":"2026-05-25T13:38:12.743941Z"}}